Home   Weather   Durrës   Past weeks

Flag for Albania Past Weather in Durrës, Albania — Yesterday and Last 2 Weeks

Now
57 °F

Light rain. More clouds than sun.


Feels Like: 56 °F
Forecast: 59 / 69 °F
Wind: 6 mph from Northwest

Location: Tirana Airport

Current Time: May 25, 2017 at 8:24:05 pm

Latest Report: May 25, 2017 at 7:50 pm


Visibility: 4 mi

Pressure: 29.86 "Hg

Humidity: 100%

Dew Point: 57 °F

Location of DurrësLocation

Past Weather in Durrës — Graph

°F

Durrës Temperature Yesterday

Maximum temperature yesterday: 77 °F (at 3:50 pm)
Minimum temperature yesterday: 61 °F (at 1:20 am)
Average temperature yesterday: 68 °F

High & Low Weather Summary for the Past Weeks

 TemperatureHumidityPressure
High86 °F (May 16, 12:50 pm)100% (May 14, 6:50 am)30.15 "Hg (May 14, 6:50 am)
Low50 °F (May 11, 3:20 am)23% (May 18, 1:20 pm)29.80 "Hg (May 12, 5:50 am)
Average67 °F67%29.99 "Hg
* Reported May 10 6:20 pm — May 25 6:50 pm, Durrës. Weather by CustomWeather, © 2017

Note: Actual official high and low records may vary slightly from our data, if they occured in-between our weather recording intervals... More about our weather records

Advertising

Durrës Weather History for the Previous 24 Hours

Scroll right to see more
 ConditionsComfort  
Time TempWeatherWind HumidityBarometerVisibility
6:50 pm
Thu, May 25
61 °FLight rain. More clouds than sun.3 mph88%29.86 "Hg4 mi
6:20 pm61 °FRain. More clouds than sun.7 mph88%29.86 "Hg3 mi
5:50 pm63 °FMostly cloudy.9 mph77%29.86 "HgN/A
5:20 pm63 °FMore clouds than sun.8 mph83%29.86 "HgN/A
4:50 pm63 °FMore clouds than sun.7 mph88%29.86 "HgN/A
4:20 pm63 °FLight rain. More clouds than sun.8 mph94%29.89 "HgN/A
3:50 pm61 °FLight rain. Mostly cloudy.6 mph94%29.89 "HgN/A
3:20 pm61 °FRain. Cloudy.7 mph94%29.89 "Hg5 mi
2:50 pm61 °FRain. Cloudy.5 mph94%29.92 "Hg4 mi
2:20 pm61 °FThunderstorms. Cloudy.3 mph94%29.92 "Hg3 mi
1:50 pm61 °FStrong thunderstorms. Cloudy.9 mph94%29.92 "Hg3 mi
1:20 pm64 °FStrong thunderstorms. Cloudy.5 mph94%29.92 "Hg4 mi
12:50 pm66 °FLight rain. Mostly cloudy.3 mph83%29.92 "HgN/A
12:20 pm66 °FLight rain. Mostly cloudy.2 mph83%29.92 "HgN/A
11:50 am68 °FLight rain. Cloudy.3 mph78%29.92 "HgN/A
11:20 am68 °FCloudy.5 mph78%29.95 "HgN/A
10:50 am68 °FCloudy.5 mph78%29.95 "HgN/A
10:20 am66 °FLight rain. Broken clouds.6 mph83%29.95 "HgN/A
9:50 am66 °FLight rain. Broken clouds.2 mph78%29.95 "HgN/A
9:20 am66 °FBroken clouds.No wind78%29.95 "HgN/A
8:50 am66 °FBroken clouds.No wind78%29.95 "HgN/A
8:20 am66 °FBroken clouds.3 mph78%29.92 "HgN/A
7:50 am66 °FBroken clouds.5 mph78%29.92 "HgN/A
7:20 am66 °FOvercast.3 mph78%29.92 "Hg4 mi
6:50 am63 °FOvercast.2 mph88%29.92 "Hg4 mi
6:20 am63 °FOvercast.3 mph88%29.92 "Hg4 mi
5:50 am63 °FPartly sunny.No wind88%29.95 "Hg4 mi
5:20 am63 °FPartly sunny.No wind88%29.92 "HgN/A
4:50 am63 °FPassing clouds.No wind88%29.92 "HgN/A
4:20 am63 °FPartly cloudy.2 mph88%29.92 "Hg5 mi
3:50 am63 °FPassing clouds.2 mph83%29.92 "Hg6 mi
3:20 am63 °FPassing clouds.3 mph83%29.92 "HgN/A
2:50 am64 °FPassing clouds.3 mph78%29.95 "HgN/A
2:20 am64 °FPassing clouds.2 mph78%29.95 "HgN/A
1:50 am64 °FPartly cloudy.3 mph83%29.98 "HgN/A
1:20 am64 °FPartly cloudy.3 mph83%29.98 "HgN/A
12:50 am64 °FPartly cloudy.No wind78%29.98 "HgN/A
12:20 am64 °FPassing clouds.2 mph78%29.98 "HgN/A
11:50 pm
Wed, May 24
64 °FPassing clouds.2 mph78%29.98 "HgN/A
11:20 pm66 °FPartly cloudy.3 mph78%29.98 "HgN/A
10:50 pm64 °FPartly cloudy.2 mph78%29.98 "HgN/A
10:20 pm64 °FPartly cloudy.2 mph78%30.01 "HgN/A
9:50 pm64 °FPassing clouds.5 mph83%30.01 "HgN/A
9:20 pm66 °FPassing clouds.2 mph78%29.98 "HgN/A
8:50 pm64 °FPassing clouds.1 mph78%29.98 "HgN/A
8:20 pm66 °FPassing clouds.2 mph78%29.98 "HgN/A
Weather by CustomWeather, © 2017

See weather overviewHow to use our weather pages